Estación de Odessa

Ultimos registro cada 15 minutos 41
Estación Fecha / Hora Temperatura Humedad Lluvia Velocidad Dirección Radiación Presion
41 Odessa 06-05-2026 10:00 11,7 95 0,4 2,2 54 23 1015,6
40 Odessa 06-05-2026 09:45 11,6 95 0,8 0,9 43 14 1015,6
39 Odessa 06-05-2026 09:30 11,6 94 1,4 0,9 57 5 1015,7
38 Odessa 06-05-2026 09:15 11,4 94 1,8 1,3 38 7 1015,5
37 Odessa 06-05-2026 09:00 11,4 94 2 1,3 36 0 1015,3
36 Odessa 06-05-2026 08:45 11,5 94 2,4 1,3 360 0 1015,2
35 Odessa 06-05-2026 08:30 11,7 93 0,2 1,3 44 0 1015
34 Odessa 06-05-2026 08:15 11,8 93 0,8 4 47 32 1014,9
33 Odessa 06-05-2026 08:00 11,8 92 0,8 1,8 24 7 1014,8
32 Odessa 06-05-2026 07:45 12,1 91 0,4 2,2 344 0 1015,1
31 Odessa 06-05-2026 07:30 12,2 91 0 2,7 341 0 1014,9
30 Odessa 06-05-2026 07:15 12,3 91 1,2 4 346 0 1014,6
29 Odessa 06-05-2026 07:00 12,3 89 0,6 1,3 339 0 1014,2
28 Odessa 06-05-2026 06:45 13,1 86 0,4 2,2 11 0 1014,2
27 Odessa 06-05-2026 06:30 13,5 84 0 1,8 341 0 1014,6
26 Odessa 06-05-2026 06:15 13,2 85 0 0,9 21 0 1014,1
25 Odessa 06-05-2026 06:00 13,2 84 0 0,4 31 0 1014,2
24 Odessa 06-05-2026 05:45 13,2 84 0 2,2 38 0 1013,9
23 Odessa 06-05-2026 05:30 13,2 85 0 2,2 56 0 1014,2
22 Odessa 06-05-2026 05:15 12,9 85 0 2,7 60 0 1014,1
21 Odessa 06-05-2026 05:00 13,1 85 0 2,2 60 0 1014,3
20 Odessa 06-05-2026 04:45 12,9 86 0 3,6 31 0 1014,1
19 Odessa 06-05-2026 04:30 12,8 86 0 2,7 58 0 1014,1
18 Odessa 06-05-2026 04:15 12,6 87 0 1,8 51 0 1014,1
17 Odessa 06-05-2026 04:00 12,2 89 0 2,2 41 0 1014,3
16 Odessa 06-05-2026 03:45 11,9 90 0 0,9 51 0 1014,5
15 Odessa 06-05-2026 03:30 11,7 91 0 1,3 78 0 1014,7
14 Odessa 06-05-2026 03:15 11,6 92 0 1,8 54 0 1014,7
13 Odessa 06-05-2026 03:00 11,3 92 0 1,3 57 0 1014,9
12 Odessa 06-05-2026 02:45 11,3 92 0 2,2 45 0 1014,9
11 Odessa 06-05-2026 02:30 11,5 92 0 1,3 64 0 1014,8
10 Odessa 06-05-2026 02:15 11,8 91 0 1,3 44 0 1014,9
9 Odessa 06-05-2026 02:00 11,8 91 0 0,9 66 0 1015,1
8 Odessa 06-05-2026 01:45 12 91 0 2,2 34 0 1015,2
7 Odessa 06-05-2026 01:30 12,1 91 0 0,9 26 0 1015,1
6 Odessa 06-05-2026 01:15 12,2 91 0 0,9 12 0 1015,1
5 Odessa 06-05-2026 01:00 12,3 90 0 0,9 34 0 1015,1
4 Odessa 06-05-2026 00:45 12,5 90 0 0,4 40 0 1015
3 Odessa 06-05-2026 00:30 12,7 89 0 1,3 7 0 1015,1
2 Odessa 06-05-2026 00:15 12,9 89 0 1,3 58 0 1014,9
1 Odessa 06-05-2026 00:00 13,1 89 0 3,6 27 0 1014,9